Theta_e
306 306 306 306 306 305 306 306 307 308 307 308 307 308 309 309 307 307 307 305 306 305 306 306 305 306 305 306 307 304 303 301 302 301 300 300 301 302 304 304 304 306 309 311 316 322 325 325 325 326 326 325 325 325 325 326 326 326 326 325 324 324 322 320 318 317 320 322 323 324 326 327 326 327 326 325 324 321 322 324 323 322 321 320 318
305 305 305 305 304 304 305 305 306 306 305 306 308 308 309 309 308 307 306 306 306 306 306 306 305 304 304 304 305 303 302 301 300 299 299 298 298 299 300 300 301 302 304 306 309 313 318 322 325 326 327 326 326 325 325 325 325 325 325 325 324 323 324 321 319 318 318 319 321 323 324 326 324 327 326 324 323 320 320 322 322 322 321 320 319
304 304 304 304 304 304 304 304 304 304 304 305 306 307 308 308 309 307 306 304 305 305 305 305 304 304 303 303 304 304 302 300 300 299 298 297 297 297 298 298 299 300 301 302 304 307 310 314 319 324 326 325 326 326 326 326 326 325 325 325 325 324 325 324 321 318 319 319 321 321 322 324 324 325 326 326 324 321 320 321 321 321 321 320 320
304 303 303 303 303 303 303 303 303 303 302 303 304 306 307 307 308 307 306 304 302 303 304 304 304 303 302 302 302 303 302 300 299 299 298 297 296 296 297 297 298 299 299 300 302 303 306 308 312 318 324 324 325 325 326 326 326 325 325 325 325 325 325 325 324 321 320 318 319 321 322 322 323 326 326 326 323 320 321 321 321 320 321 321 320
303 303 302 302 303 303 302 302 302 302 302 302 302 304 304 304 305 306 305 303 301 301 301 302 302 302 301 301 301 301 300 299 298 298 297 297 297 296 296 297 298 298 299 300 303 303 304 305 308 310 314 319 323 324 325 325 325 325 325 326 325 325 325 325 324 323 321 319 319 320 322 322 323 324 324 321 320 319 319 319 319 319 320 320 321
302 302 302 302 302 303 303 303 302 301 302 301 302 302 302 302 302 303 304 302 300 300 300 300 301 300 300 300 300 300 299 298 297 296 296 296 296 296 297 297 297 298 299 300 301 302 302 303 305 306 308 312 318 323 324 324 325 324 324 325 325 325 324 324 324 323 322 321 320 319 319 320 319 319 320 321 319 316 316 317 318 319 318 318 319
301 301 302 303 303 302 302 302 302 301 301 301 301 301 301 301 301 301 302 301 299 299 300 300 301 300 300 300 300 299 298 298 296 296 295 295 295 296 296 296 297 298 299 300 301 302 302 303 304 305 306 308 311 317 323 324 324 324 324 324 325 324 324 324 324 323 321 320 320 320 319 320 320 318 318 319 319 318 315 312 313 317 317 317 317
301 301 302 302 302 302 302 302 302 303 302 301 301 300 300 300 300 300 300 299 298 298 298 298 299 299 299 299 299 299 298 297 296 295 295 295 295 295 296 297 298 298 299 300 301 302 303 303 304 306 307 308 309 313 317 321 323 323 324 324 324 324 323 323 322 322 320 320 319 318 319 319 319 319 317 316 314 314 315 313 311 312 314 316 318
301 301 301 300 301 301 301 301 301 301 301 301 300 300 300 299 299 299 298 298 299 298 297 297 297 297 298 298 298 298 297 296 296 294 294 294 294 295 296 298 298 299 300 302 303 303 303 304 305 307 310 312 308 307 308 308 311 317 323 324 323 323 322 322 322 320 320 319 319 319 318 318 318 318 312 311 311 312 313 314 313 313 314 314 316
299 299 299 299 299 299 299 299 298 299 299 299 299 299 299 299 299 298 298 297 297 298 296 296 296 295 295 295 296 296 296 296 297 295 295 294 294 295 296 298 299 300 302 302 302 302 303 304 305 309 306 307 306 304 303 304 307 311 317 323 323 322 322 321 321 320 319 318 318 318 316 316 317 318 313 312 314 314 312 312 311 310 311 311 313
298 297 297 298 298 298 297 297 297 297 297 297 298 298 298 298 298 297 297 297 296 296 296 295 294 295 294 294 294 295 295 295 294 292 292 293 294 294 295 297 299 299 300 300 299 300 301 302 302 304 304 304 305 302 302 302 303 304 304 307 314 322 322 321 321 321 318 318 319 318 317 316 317 319 318 313 312 313 312 311 311 310 308 308 307
296 296 297 297 297 296 296 296 296 296 296 296 296 296 297 296 296 296 296 296 296 295 294 294 294 294 294 293 293 294 294 295 292 292 292 292 293 294 295 297 298 298 299 299 299 299 300 300 300 301 302 303 303 304 303 301 301 302 302 302 302 303 307 317 320 320 319 318 318 318 317 317 317 318 319 315 312 312 311 311 310 309 307 307 308
296 296 296 296 295 295 295 294 294 294 295 295 295 295 295 295 295 295 295 296 295 295 294 293 293 293 293 293 293 293 293 294 292 292 292 291 291 293 295 296 296 297 298 298 298 298 299 299 299 300 301 303 304 301 301 302 301 300 301 303 302 301 299 299 303 317 322 319 319 317 318 318 317 318 320 319 314 312 311 309 310 310 309 308 309
295 295 295 294 294 294 294 294 293 293 294 294 294 293 293 293 293 294 294 294 294 294 294 293 293 293 293 292 292 292 292 294 292 292 291 291 291 292 294 294 296 296 297 297 297 297 298 298 298 298 299 300 299 299 299 299 299 300 301 304 310 311 303 299 299 299 305 317 320 318 319 320 319 319 320 318 315 313 312 310 310 310 309 309 311
294 294 294 294 293 293 293 293 293 293 293 293 292 292 292 292 292 293 292 292 292 292 292 292 293 293 292 292 292 292 292 293 292 291 291 291 291 293 293 294 295 295 296 297 297 297 297 297 297 298 298 298 298 297 296 296 296 297 298 300 303 313 317 315 310 309 309 311 317 321 322 322 321 321 322 322 319 317 316 314 312 312 312 310 307
292 292 292 292 292 292 292 291 291 291 292 291 291 291 291 291 291 291 292 291 291 291 292 292 291 291 292 292 292 291 292 292 292 291 291 291 291 293 292 293 293 293 294 295 296 296 296 296 297 297 297 296 296 293 293 294 294 294 295 297 301 308 316 315 309 309 314 316 317 320 323 323 314 321 320 322 322 320 316 314 313 311 310 307 305
291 292 292 291 292 291 291 291 291 290 290 291 290 290 290 290 290 292 290 290 290 290 290 290 291 290 291 291 291 291 291 292 292 291 291 291 292 291 292 292 292 292 293 295 295 295 295 296 297 296 295 294 294 291 291 293 293 293 294 296 301 306 314 318 307 302 302 303 304 305 306 306 305 305 306 307 314 319 317 313 310 310 308 306 305
291 291 291 290 291 290 290 289 289 290 289 289 289 289 289 289 290 291 288 288 289 289 290 290 290 290 290 290 293 291 290 293 292 291 291 291 292 291 291 291 291 291 292 294 294 294 295 298 298 295 293 293 292 291 291 293 293 293 294 296 300 306 312 315 312 308 300 299 299 300 301 302 303 303 304 303 304 311 317 312 312 310 308 308 305
291 291 290 290 290 290 289 290 289 289 289 288 289 289 289 289 288 288 289 288 289 288 292 289 289 289 290 290 294 291 290 292 293 291 291 291 291 291 291 290 290 290 291 292 294 293 293 295 296 295 293 292 290 291 291 293 295 295 297 299 304 308 313 312 310 310 308 308 309 309 307 306 309 312 312 302 303 309 318 317 313 310 308 308 306
290 290 290 290 290 291 291 291 290 288 287 287 288 289 289 288 288 288 288 288 288 288 289 289 288 289 289 289 290 290 290 291 293 291 291 291 291 291 290 289 288 289 290 292 292 292 292 292 293 292 290 290 290 290 291 291 295 300 301 304 307 310 313 311 310 311 310 310 311 310 311 311 312 312 314 310 308 314 317 318 314 313 311 309 307
291 290 290 290 290 290 289 289 288 288 289 289 290 289 288 288 288 288 288 288 287 288 288 288 288 288 288 289 289 290 292 292 292 291 291 291 291 291 290 289 289 289 290 291 291 290 291 291 292 292 290 290 290 291 291 291 292 298 297 298 299 300 303 306 305 303 307 305 304 304 304 304 304 305 308 310 310 312 315 314 314 314 313 310 307
290 290 289 289 290 290 290 290 291 291 290 288 287 288 288 287 288 287 286 286 286 286 286 287 287 287 288 288 289 289 291 294 292 292 291 291 290 291 290 289 290 290 290 290 290 290 290 291 291 292 290 290 290 291 291 291 292 295 294 293 293 294 302 303 303 303 303 302 302 302 302 302 302 302 302 302 303 306 311 312 312 313 314 313 310
290 290 290 290 291 290 289 289 290 291 290 288 287 287 287 287 286 286 285 286 286 286 286 286 286 286 287 288 288 289 290 291 293 291 291 291 290 290 290 289 289 291 290 289 289 290 291 291 291 292 290 290 290 291 291 291 292 292 291 293 294 295 298 301 300 301 300 299 299 298 298 299 299 299 299 300 301 302 303 304 306 308 305 305 307
290 291 290 289 289 290 291 290 288 287 289 288 288 286 287 287 287 288 285 286 285 286 286 286 286 286 286 287 288 289 290 290 292 292 291 291 290 290 289 289 290 289 290 290 290 290 290 290 290 289 290 290 290 291 291 291 291 290 291 292 294 296 300 299 299 299 297 297 297 297 297 297 298 298 298 299 299 300 301 302 303 304 304 304 304
291 289 289 289 289 288 288 287 288 287 287 287 287 288 287 287 288 287 287 286 285 285 285 286 285 285 286 286 286 288 289 290 290 291 291 291 290 290 289 289 289 289 289 290 290 291 290 290 289 289 290 290 290 291 291 291 290 291 291 292 296 296 298 299 298 298 297 296 296 296 296 297 297 298 299 300 300 301 301 301 301 301 302 302 302
290 289 288 288 288 288 288 287 287 286 286 286 288 288 287 286 288 287 286 285 284 285 285 286 286 285 285 285 286 287 288 289 289 289 291 291 291 290 290 290 290 290 290 289 289 290 290 290 289 289 290 290 291 291 291 291 291 291 291 293 294 294 294 295 296 296 296 296 296 296 296 297 297 298 298 299 299 298 299 300 301 301 302 302 301
290 288 288 288 288 287 286 287 287 286 284 285 285 286 287 285 285 286 284 284 286 285 286 286 286 285 285 285 285 286 287 288 288 288 288 288 289 290 289 289 290 289 289 289 290 290 290 290 290 289 289 289 290 290 290 291 291 292 293 293 293 293 293 293 293 294 294 296 296 296 297 297 298 297 297 297 297 297 298 298 298 298 299 299 298
288 287 288 287 288 287 287 289 288 285 285 284 285 287 285 285 285 285 285 285 284 286 285 285 285 284 284 284 285 286 287 288 288 288 288 288 288 289 289 288 287 287 287 288 289 290 290 290 289 290 289 289 289 289 290 290 290 290 291 292 292 292 293 293 293 292 293 294 295 296 296 297 296 296 296 296 296 296 297 297 297 297 297 297 295
285 284 285 286 287 288 287 287 286 286 284 284 283 284 285 288 286 287 284 283 284 285 285 285 286 284 284 284 284 285 286 287 288 289 289 289 288 288 288 288 288 287 289 289 289 289 289 288 288 288 287 286 286 287 287 288 288 290 290 291 291 291 291 291 290 290 290 291 291 292 293 295 295 295 295 295 295 295 296 296 296 296 296 296 294
286 286 284 284 285 287 287 286 286 287 284 283 286 288 287 289 287 287 287 289 288 286 285 284 285 285 284 286 284 284 284 286 288 288 289 289 290 289 289 289 289 288 289 288 289 287 287 286 286 286 286 286 286 286 286 286 286 287 288 289 290 290 290 290 290 289 289 289 290 290 290 291 292 293 293 293 294 295 294 293 295 295 294 293 292
286 286 286 285 285 285 285 286 285 285 285 285 283 284 286 287 287 286 287 288 288 288 288 287 287 287 285 284 287 289 289 289 289 289 289 290 289 289 289 289 289 289 288 287 286 286 286 286 286 286 286 286 286 286 286 286 286 286 287 288 289 289 288 289 289 288 288 288 288 289 289 290 290 290 290 291 292 293 293 293 294 294 293 293 292
286 285 285 285 285 285 284 284 284 286 283 283 284 284 282 282 287 289 289 288 289 289 289 289 289 289 288 288 288 286 288 289 289 289 289 290 289 289 289 289 289 289 288 288 285 285 285 285 286 286 286 286 286 286 286 286 286 286 286 286 287 288 288 288 289 289 288 288 287 287 288 288 289 289 289 289 289 291 291 291 291 291 291 292 292
286 285 285 285 285 285 284 284 284 285 286 285 285 284 284 282 283 284 286 288 288 289 288 289 289 289 288 288 289 288 288 288 289 289 289 289 289 289 289 289 289 289 288 286 284 284 284 285 285 286 286 286 286 286 286 286 286 286 286 286 286 287 288 289 289 289 288 288 288 287 287 287 288 288 288 288 288 288 289 289 290 291 291 290 289
287 286 286 286 285 284 284 284 284 285 284 282 283 282 282 283 284 283 281 284 285 285 286 288 288 288 288 289 289 288 289 289 289 289 289 289 289 289 289 287 289 289 288 284 284 284 284 284 285 285 286 286 286 286 286 286 286 286 286 286 287 287 288 289 289 288 288 288 288 287 287 287 287 288 288 288 288 288 288 288 289 288 288 289 289
285 286 285 285 284 286 284 283 284 284 284 283 283 282 283 282 282 282 285 285 284 283 284 285 287 288 286 287 288 288 288 289 289 289 289 288 289 289 289 287 286 286 286 285 285 284 284 284 284 285 285 286 286 286 286 286 286 286 286 286 287 287 287 287 287 288 288 288 288 287 287 287 287 287 287 287 287 287 287 287 288 288 288 288 288
286 284 285 285 283 283 283 283 283 283 284 285 283 284 282 283 283 284 283 282 282 283 283 282 281 285 287 288 289 288 288 288 288 288 288 288 288 288 287 286 285 285 285 285 285 284 284 284 284 284 284 285 286 286 286 286 286 286 287 286 286 286 286 286 286 286 287 287 287 287 287 287 287 287 288 287 287 286 287 287 287 287 287 287 287
284 283 283 284 284 284 284 284 283 283 283 282 283 283 283 282 282 281 281 282 281 281 282 282 283 285 284 282 287 288 287 287 288 288 288 288 287 286 286 287 287 287 286 286 286 285 285 285 284 284 284 284 284 284 285 286 286 286 286 287 286 286 286 286 286 286 286 286 287 287 286 286 286 286 286 286 286 286 286 287 287 287 287 287 287
283 283 284 284 285 286 286 285 284 282 282 283 283 282 282 282 282 282 282 282 282 281 283 283 285 281 282 283 290 286 283 285 288 288 287 286 284 283 285 287 288 287 286 287 287 286 286 286 286 285 284 284 284 283 284 284 284 285 285 286 286 286 287 286 286 286 286 286 286 286 286 286 286 286 286 286 286 286 286 286 287 287 286 286 286
285 284 284 284 283 285 284 284 283 283 282 282 282 282 282 283 283 283 281 280 280 280 281 282 283 282 283 282 282 284 285 283 282 281 282 283 283 283 283 285 286 287 287 287 287 287 287 287 286 286 286 285 284 283 283 283 283 284 284 285 286 286 286 285 285 285 285 285 286 286 286 286 286 286 286 286 286 286 286 286 286 286 286 286 286
286 285 284 285 284 283 284 283 283 283 282 283 282 281 282 282 282 283 283 283 283 281 281 282 284 285 283 281 282 282 283 282 281 280 280 281 282 283 282 283 284 285 286 286 286 285 285 285 286 286 285 284 284 284 283 282 282 282 283 283 284 284 285 285 285 285 285 285 285 285 285 285 286 286 286 285 285 286 286 286 285 286 286 286 286
283 283 284 283 283 283 285 284 284 283 282 281 282 282 282 282 281 280 281 284 282 281 281 282 284 283 282 283 286 285 284 284 283 282 281 280 281 282 283 282 283 283 284 284 285 285 284 284 284 284 284 284 284 284 283 282 281 282 283 283 283 283 284 284 285 285 285 285 285 285 285 285 285 285 285 285 286 286 285 285 286 286 286 286 286
283 283 283 284 283 283 284 285 283 282 282 281 282 282 282 280 280 280 281 282 281 281 280 282 284 282 283 286 287 287 283 281 280 281 282 282 282 283 281 283 282 283 283 284 283 284 284 284 283 282 283 283 283 283 283 283 281 280 281 282 282 283 283 283 283 283 283 284 284 284 284 285 285 285 285 286 285 285 285 285 285 285 285 285 285
284 285 284 283 283 284 284 285 282 283 282 283 283 282 282 281 282 281 281 281 280 279 280 281 284 283 282 283 283 285 282 281 281 281 281 281 281 281 282 282 282 283 282 282 282 282 280 279 280 280 280 281 282 281 279 280 279 279 279 280 281 282 282 283 283 283 283 283 283 283 283 283 284 284 284 284 284 284 284 284 284 284 284 284 284
284 283 283 284 283 283 282 282 282 281 281 283 283 282 281 280 281 282 281 282 281 280 281 282 281 281 282 281 282 283 282 282 282 281 281 281 281 281 282 282 282 284 282 282 283 281 278 278 278 279 279 279 280 280 279 279 277 278 278 279 281 282 281 281 281 281 281 282 283 283 283 283 283 283 284 284 284 284 283 283 284 284 284 283 284
284 283 283 283 283 282 283 282 282 281 281 282 282 282 282 281 282 282 281 282 280 280 280 280 280 281 280 281 282 282 282 282 281 281 280 281 281 282 282 282 281 283 281 282 281 280 278 276 275 277 277 279 279 279 278 278 278 276 275 277 278 279 278 279 277 278 278 280 281 281 282 282 281 281 282 282 282 283 283 282 282 283 283 283 283
283 283 283 282 283 282 282 282 282 281 282 282 281 282 282 281 280 281 281 282 281 281 281 281 280 280 281 282 282 281 283 281 282 281 280 280 280 281 281 281 280 281 280 279 278 277 277 277 277 277 276 276 277 277 278 278 278 279 279 278 276 276 277 277 278 279 281 280 280 278 279 281 281 282 282 281 281 281 282 282 282 282 281 281 281
285 283 283 282 282 282 283 282 281 281 281 281 281 282 281 281 281 281 281 281 281 281 281 281 281 282 283 281 281 282 282 281 282 281 282 282 281 282 281 280 280 280 281 279 277 276 276 276 276 276 275 274 274 277 278 277 278 277 278 277 277 277 276 276 277 278 279 279 279 279 279 279 280 280 282 282 282 282 282 281 281 281 282 281 281
284 283 283 283 282 282 282 282 282 283 281 282 282 282 281 281 281 281 282 282 281 280 280 280 280 280 281 281 282 281 281 281 281 282 281 281 281 281 280 280 280 280 278 279 278 276 277 275 274 273 274 274 276 275 277 278 277 277 277 276 276 276 277 276 277 279 279 279 280 279 279 279 278 279 279 280 279 279 281 280 280 281 281 280 280
283 283 283 283 283 283 282 282 282 282 282 282 282 282 282 281 281 280 280 281 281 281 280 281 282 281 280 280 281 281 281 281 282 283 281 281 281 282 280 280 280 279 278 279 279 277 276 276 276 275 274 274 273 274 275 277 278 277 277 276 276 275 275 275 277 278 279 280 280 280 280 280 279 279 280 279 279 278 278 278 279 280 279 280 280
283 283 284 283 283 283 283 282 282 283 283 281 282 283 281 282 281 281 280 281 281 281 281 281 281 282 282 282 281 281 280 281 282 283 283 281 280 281 280 280 280 279 277 278 279 278 276 275 275 275 275 274 274 275 275 275 276 276 275 274 274 274 275 275 275 276 278 277 279 278 279 278 278 278 278 277 277 279 279 279 278 279 278 279 279
283 284 283 283 284 283 282 282 282 282 283 282 281 281 282 281 281 281 281 282 282 282 281 281 280 281 280 280 280 280 280 280 281 281 281 283 282 282 280 280 282 280 279 278 278 278 277 277 276 276 275 276 275 274 275 274 272 272 273 274 274 274 274 274 275 275 276 277 277 280 280 280 279 280 280 279 279 280 280 279 279 278 278 278 278
Wind_Speed
7 6 6 7 8 8 7 7 8 7 7 7 7 6 6 7 7 7 7 8 7 7 7 7 8 9 9 9 9 10 10 10 10 10 9 10 9 9 9 10 10 9 9 12 11 10 8 9 9 9 8 8 8 8 7 8 8 8 8 9 9 8 9 9 10 10 6 6 5 6 8 8 8 11 11 10 9 10 13 12 11 11 10 10 11
6 5 5 6 7 7 7 6 7 7 7 6 7 7 6 6 6 7 8 7 7 8 9 7 7 8 8 9 9 9 9 9 10 10 11 12 12 9 9 11 11 11 9 10 11 10 11 10 10 8 8 9 9 9 8 8 8 9 9 9 9 9 10 9 10 10 11 5 6 5 5 9 9 11 12 12 11 9 10 10 9 11 11 10 9
5 5 5 6 6 6 6 7 7 7 7 6 7 7 7 7 7 7 8 8 8 8 8 8 8 9 9 9 10 8 9 10 10 11 11 12 12 12 11 11 10 11 11 12 12 12 11 11 11 10 8 9 9 9 9 9 8 9 10 9 10 10 10 11 10 10 10 9 7 6 7 7 10 10 12 11 11 11 13 12 11 9 9 10 10
5 5 5 5 5 5 6 5 6 6 7 6 7 7 7 6 7 7 7 8 9 9 9 9 9 9 9 10 10 10 10 11 11 11 12 12 12 12 11 11 10 10 10 11 11 12 12 11 12 12 11 11 10 9 8 9 9 8 9 9 10 11 10 9 11 10 9 11 6 8 7 9 8 8 10 9 9 8 9 4 4 8 10 10 10
5 5 5 5 5 5 4 5 6 6 7 7 8 8 8 8 7 7 7 8 9 8 9 8 9 9 9 10 10 10 11 11 12 12 12 11 12 12 11 11 10 10 10 10 11 11 12 12 12 12 13 13 10 9 8 10 9 8 9 9 9 10 9 9 10 10 9 10 7 6 6 7 6 7 7 9 6 6 8 9 11 10 9 9 9
4 5 5 5 5 5 4 4 5 5 6 6 7 7 7 8 8 8 8 9 8 7 8 7 8 9 10 10 10 11 11 11 12 13 13 12 11 11 11 10 10 10 10 10 10 10 10 12 13 12 12 13 14 10 9 10 10 10 11 10 9 10 9 9 9 10 11 11 9 7 6 7 5 5 7 10 10 8 7 4 4 6 8 6 6
5 5 6 6 6 6 6 5 3 4 5 5 5 6 7 7 8 8 8 8 8 9 9 9 8 9 10 10 10 11 12 12 13 14 14 13 12 12 12 11 10 9 9 10 10 9 9 10 11 12 13 13 14 14 12 11 10 11 11 11 11 11 10 9 10 11 11 11 10 10 9 8 8 8 6 9 11 11 12 9 7 7 8 10 10
6 6 5 6 6 6 6 5 5 4 4 4 5 5 5 6 7 7 7 8 8 9 9 9 9 9 9 9 10 9 10 11 12 14 13 13 13 12 11 12 12 10 10 9 9 9 10 10 10 11 11 11 12 14 15 13 11 11 10 10 10 11 11 10 10 10 10 10 10 9 10 9 7 4 3 6 7 4 7 10 12 11 10 10 12
6 5 6 6 6 6 6 6 6 7 6 5 4 4 5 4 5 6 6 7 6 7 7 7 8 9 9 9 9 8 7 9 10 13 13 14 14 13 12 11 11 12 11 11 11 9 8 8 8 9 12 18 19 18 17 17 15 15 11 10 10 10 11 10 9 9 9 9 9 8 8 9 9 8 8 10 13 13 10 10 11 10 9 8 8
5 5 5 5 5 6 6 6 6 7 7 7 6 5 4 4 4 5 6 6 6 6 7 7 7 7 8 8 8 7 8 7 17 22 18 13 12 10 11 11 10 9 10 11 11 11 11 10 12 20 19 18 17 17 18 19 20 17 15 12 10 10 10 10 10 11 10 9 11 10 11 11 10 11 11 12 10 6 10 10 10 6 6 7 5
5 5 5 5 5 6 6 6 6 7 6 6 6 6 7 6 6 5 4 5 6 6 6 8 8 7 7 8 8 8 7 10 22 19 20 22 16 11 10 11 12 11 10 10 11 12 12 12 11 14 16 16 15 19 20 20 19 20 20 19 16 12 10 12 11 10 10 10 11 10 11 11 12 11 12 10 10 13 13 12 12 10 12 12 12
5 5 5 6 5 6 5 6 6 6 6 6 6 6 6 7 7 6 6 6 6 6 7 7 7 7 7 7 8 8 8 16 20 21 21 22 21 14 8 10 11 10 11 12 11 11 12 11 11 10 10 14 15 15 16 19 20 21 21 20 20 21 18 14 11 11 10 10 10 11 11 12 11 11 10 9 11 9 10 11 12 12 12 13 11
5 5 5 5 5 5 5 6 6 6 6 6 6 6 7 7 7 7 8 7 5 6 6 7 7 7 8 8 8 8 8 16 20 22 21 22 23 18 8 10 10 11 11 12 12 12 11 10 11 9 9 19 16 14 14 15 19 21 22 22 21 20 19 20 19 15 10 11 11 11 12 11 12 11 11 12 11 13 12 11 12 11 13 15 14
4 4 5 5 5 4 5 5 6 6 6 6 6 6 6 7 6 6 6 7 8 7 7 7 7 8 8 8 7 8 8 16 20 21 21 22 22 17 9 10 10 11 12 12 11 12 12 11 11 12 12 12 11 13 14 15 14 14 13 14 13 15 18 19 19 20 16 11 11 13 11 11 12 11 12 11 14 15 13 14 13 13 13 16 15
4 4 4 4 4 5 5 5 5 5 5 5 5 6 6 6 7 6 6 6 7 7 7 7 7 8 8 8 8 9 9 18 19 21 21 22 22 14 10 10 9 10 10 11 12 12 13 11 11 11 14 14 12 16 17 17 17 15 15 14 13 13 10 11 12 12 13 13 12 12 12 11 12 12 11 12 16 15 16 18 19 18 15 4 7
4 4 4 4 4 4 4 5 5 4 4 5 5 6 6 6 6 6 5 6 5 5 6 6 7 8 8 8 8 10 10 17 19 20 21 22 21 10 10 10 10 11 10 11 12 11 12 12 12 13 15 15 17 22 22 17 16 17 16 15 11 12 11 11 14 14 13 12 12 12 11 11 12 12 11 12 12 10 6 2 3 3 7 8 9
4 4 4 4 4 4 4 4 4 4 4 5 5 5 5 6 6 5 6 6 6 7 6 6 5 6 8 8 9 9 9 15 19 20 21 22 17 11 11 10 10 12 11 11 10 10 11 13 14 12 15 15 20 25 25 23 14 14 14 13 10 10 10 8 12 16 16 16 16 16 18 16 15 16 16 17 14 12 9 9 11 11 11 11 8
4 4 4 4 3 4 3 4 4 4 4 5 4 4 4 4 4 4 4 5 7 6 6 7 7 6 7 8 8 9 9 13 18 20 21 21 18 12 11 10 12 12 12 11 10 10 12 22 20 14 15 15 23 25 26 23 13 9 9 9 10 10 9 7 4 5 9 11 13 16 17 17 17 17 18 17 18 14 12 14 11 11 13 12 11
4 4 4 3 3 3 3 4 4 4 4 4 4 4 4 3 3 3 4 5 5 5 6 6 7 6 6 6 11 10 9 12 17 19 21 20 18 12 11 10 11 12 12 12 11 10 12 14 20 19 18 19 23 23 26 23 12 8 8 8 9 9 8 5 6 6 5 6 7 8 10 12 13 12 12 18 19 18 15 13 10 14 13 12 9
4 4 3 3 2 2 2 3 3 4 3 4 4 4 3 3 5 5 5 5 6 6 6 6 7 7 7 7 8 8 9 10 14 20 20 21 20 14 10 11 14 14 12 12 13 13 12 12 15 20 25 24 22 23 25 25 17 11 9 9 8 8 5 6 7 8 7 7 8 7 9 7 8 9 9 10 13 15 14 12 13 14 13 12 12
4 4 4 3 3 2 2 3 3 2 2 2 1 3 3 4 4 5 6 6 6 7 7 6 6 6 6 6 6 7 8 10 12 18 19 20 20 17 10 11 11 11 11 11 11 12 12 12 11 19 24 23 22 22 23 23 20 12 11 9 7 6 7 5 5 5 2 1 1 1 1 1 1 1 4 7 9 10 11 10 11 13 13 13 12
4 4 4 3 2 2 2 1 1 2 2 3 4 4 3 3 4 4 5 5 5 5 5 5 6 7 7 7 7 8 9 13 11 14 19 20 20 21 12 10 12 10 11 9 10 11 12 12 13 19 24 23 22 21 23 23 21 13 15 16 18 16 9 7 7 7 6 6 5 5 5 4 4 4 5 3 1 3 6 7 9 11 11 13 16
4 4 4 3 2 2 2 2 2 3 2 2 3 4 3 4 4 4 4 4 5 6 7 7 7 7 7 7 7 8 8 9 14 12 16 19 20 19 19 14 18 11 9 10 11 11 11 12 13 21 21 22 21 20 22 23 17 16 21 19 18 19 12 7 6 8 8 8 8 8 7 6 5 6 6 6 5 5 4 2 2 5 5 4 3
4 4 3 3 3 2 1 1 2 2 2 2 3 3 4 4 3 5 4 5 6 7 7 7 7 8 8 9 8 8 8 7 10 15 14 18 18 19 19 19 19 13 10 9 10 11 11 12 14 21 20 21 21 20 20 21 18 22 21 21 18 16 11 10 9 8 8 8 8 8 8 7 6 4 6 6 7 7 6 6 6 6 6 6 7
4 4 4 3 3 2 1 1 2 2 2 2 3 3 4 4 5 5 5 6 6 6 7 6 6 7 8 8 9 9 8 8 8 11 16 16 17 18 18 19 19 18 12 10 11 11 15 19 20 19 18 19 19 18 17 20 23 22 23 20 18 12 12 10 9 9 11 10 9 8 7 7 5 5 4 6 7 6 7 8 8 8 9 10 9
4 4 2 2 2 1 2 1 1 1 2 1 1 0 1 3 4 5 5 6 5 6 6 6 6 7 7 8 8 8 8 7 9 9 9 13 13 17 19 17 18 19 16 13 17 18 18 19 20 18 16 16 13 13 13 15 21 22 22 20 13 13 11 11 10 11 10 9 9 9 8 7 7 7 6 8 9 8 5 4 7 7 7 9 11
4 3 3 2 1 1 2 1 0 1 2 3 2 2 2 3 3 4 3 4 6 6 6 6 7 7 7 8 8 8 8 8 8 8 8 9 9 11 11 12 15 14 12 11 12 12 14 15 13 16 15 20 20 17 17 19 18 17 15 14 13 12 11 11 10 10 10 9 9 8 8 6 6 10 10 10 9 8 6 6 8 7 8 8 11
5 5 4 3 2 2 1 1 1 1 2 2 4 6 4 2 4 4 4 4 4 7 6 6 6 6 7 7 7 8 8 8 9 10 10 10 9 9 9 10 10 9 10 11 10 11 11 12 14 13 14 15 15 14 14 13 14 14 14 13 12 12 14 16 15 12 10 9 9 8 9 9 11 9 9 10 9 8 7 6 6 7 6 9 11
4 3 2 3 3 1 1 1 1 1 2 3 3 2 3 5 4 5 2 3 1 1 5 6 5 4 4 5 6 7 7 9 9 9 10 12 11 10 10 10 9 9 13 16 11 11 12 13 14 14 14 13 13 13 12 13 13 13 16 15 13 13 13 12 11 10 9 10 11 10 10 10 10 10 9 11 11 10 8 8 8 8 9 12 12
4 2 2 2 1 2 3 3 2 2 2 3 5 6 4 5 5 2 5 3 4 5 4 3 4 4 5 6 1 3 5 7 11 14 13 14 14 15 14 15 15 13 14 15 11 10 12 12 13 13 13 13 13 13 12 12 12 13 13 15 14 13 13 12 12 11 10 10 9 10 10 9 10 10 10 10 10 11 12 11 9 8 11 12 12
3 2 2 1 0 1 2 3 2 2 2 2 3 2 6 6 1 6 8 8 7 7 7 10 10 7 3 3 8 9 9 11 12 12 13 14 14 15 15 14 16 15 15 11 11 11 11 12 12 12 12 12 12 12 12 11 11 11 11 11 12 13 13 12 11 10 10 10 10 10 9 10 10 10 10 10 10 10 11 10 10 11 11 10 13
5 4 3 2 1 0 0 0 1 1 1 1 0 1 2 3 5 5 3 3 5 5 5 5 3 4 2 4 4 6 8 10 13 13 13 14 14 15 15 15 14 14 14 11 10 11 10 11 11 11 11 12 12 11 11 11 11 11 10 11 12 12 12 12 10 10 10 10 10 9 9 8 8 9 9 9 9 10 11 11 11 11 11 11 11
4 3 4 4 2 1 1 1 0 0 1 0 0 1 0 2 3 4 6 8 7 5 6 8 9 7 5 4 3 3 5 9 12 13 14 14 15 14 14 14 13 14 13 11 9 10 9 9 10 10 10 11 11 11 11 11 11 11 10 10 10 11 11 11 11 11 10 10 10 9 9 8 8 8 8 8 9 9 9 9 9 10 10 11 11
5 4 3 4 4 3 2 2 1 1 2 1 2 1 1 1 1 0 2 5 7 6 6 7 7 8 8 7 8 9 9 10 11 12 13 14 14 15 12 9 12 13 11 8 8 9 8 9 9 10 10 9 9 10 10 11 10 10 10 10 9 9 10 11 12 11 10 10 10 9 9 8 7 7 8 8 7 7 8 8 8 9 9 8 8
4 2 2 2 2 2 2 2 1 1 1 1 0 1 2 1 1 0 0 1 4 5 5 7 6 5 4 6 8 8 9 9 10 11 12 12 13 13 10 8 9 9 9 8 7 7 7 8 8 8 8 9 10 9 9 10 10 10 10 10 9 9 10 10 10 10 10 10 11 9 8 9 8 7 7 7 7 8 7 7 7 7 8 8 8
3 3 2 2 2 2 2 3 3 3 2 1 1 2 1 0 1 1 0 1 2 4 6 4 3 6 8 7 7 8 9 9 9 10 11 12 12 10 8 9 8 8 7 7 7 8 6 6 6 7 7 8 8 9 9 9 9 9 9 9 9 9 9 9 9 9 10 9 9 10 10 9 9 7 7 8 8 7 7 7 7 7 7 7 6
3 3 2 1 1 1 1 2 3 2 3 1 1 2 1 2 1 1 1 0 2 4 3 4 6 6 5 3 4 8 9 9 9 9 11 11 12 8 6 7 6 6 7 7 7 7 8 8 6 6 7 7 7 7 7 8 8 8 8 9 8 9 8 8 9 8 8 9 9 9 9 8 8 7 6 7 7 7 7 7 7 7 7 7 7
3 3 1 1 0 1 2 2 1 3 0 1 2 2 3 0 2 1 1 2 2 2 5 5 4 4 4 6 5 3 6 7 9 9 9 9 8 6 6 6 7 6 6 6 6 6 7 7 7 7 7 6 6 7 7 7 7 7 8 9 9 8 11 9 10 9 9 8 8 8 8 8 8 7 7 7 7 7 7 7 6 6 7 8 6
1 3 4 5 4 2 3 1 1 2 0 2 3 1 2 1 0 1 1 1 3 3 4 4 4 5 5 4 5 5 5 6 6 6 6 6 5 5 5 5 6 7 6 6 6 6 6 7 7 7 7 6 6 6 6 6 6 7 7 7 8 8 10 8 9 8 8 8 7 7 7 7 7 7 6 7 7 6 6 6 6 6 6 6 6
1 1 1 2 1 2 1 1 0 1 1 1 2 1 0 0 1 1 0 1 3 3 4 4 6 6 5 3 4 2 3 4 4 4 4 5 5 6 5 5 6 6 6 7 7 6 6 6 6 6 7 7 7 7 6 5 6 6 6 7 7 8 8 7 7 7 7 6 6 6 7 7 6 6 7 6 5 5 6 6 5 5 5 6 6
1 0 1 1 2 2 2 0 0 1 0 1 0 1 1 1 2 2 1 0 1 2 4 4 5 6 5 4 5 2 1 2 3 4 4 3 4 5 6 6 5 6 7 7 7 6 6 6 6 6 6 6 6 6 6 5 6 6 6 6 7 7 7 8 7 7 7 6 6 6 6 5 6 6 6 5 5 5 5 4 4 4 4 5 5
3 2 2 2 2 3 2 1 1 0 0 0 0 1 1 2 2 3 2 2 3 3 3 5 6 5 5 7 6 2 3 3 2 3 5 4 4 5 4 5 5 5 5 6 6 6 6 6 6 6 6 6 6 6 6 6 6 6 6 7 7 7 7 7 7 7 6 6 6 6 5 5 5 5 5 5 5 5 5 5 4 4 5 5 5
3 3 3 3 4 4 4 3 2 1 0 1 0 1 1 2 3 3 2 1 2 2 3 4 6 5 4 4 4 3 3 4 3 3 4 5 6 4 4 4 6 5 4 5 5 4 4 4 5 5 4 5 5 5 5 5 4 5 6 6 7 7 7 7 8 8 7 6 6 5 5 6 6 6 6 6 5 6 5 5 5 5 5 5 4
4 3 2 1 1 1 3 3 4 3 3 2 1 0 0 1 2 3 3 2 2 3 3 5 5 4 6 5 3 2 4 5 4 3 3 4 5 4 5 5 5 6 6 6 6 5 4 4 5 6 4 5 5 4 3 4 3 5 5 6 6 7 7 7 7 7 6 6 5 5 5 5 5 5 5 5 5 6 6 5 5 4 4 4 4
5 4 4 2 1 3 3 2 3 4 3 1 0 1 0 1 3 3 2 2 3 3 4 4 4 3 5 5 4 4 5 4 4 4 4 4 4 5 5 6 4 5 6 6 5 4 4 4 4 5 5 6 5 4 4 4 3 3 3 4 5 6 6 6 5 4 3 4 5 5 5 5 5 5 5 5 4 4 6 5 4 4 4 4 3
4 4 4 3 2 3 4 4 3 3 5 5 4 2 1 1 2 3 4 5 4 4 3 4 3 3 4 5 5 4 4 4 4 4 4 4 4 5 6 6 4 4 4 4 4 3 3 2 3 4 4 5 5 4 4 4 4 4 4 3 2 2 3 4 4 4 5 5 5 4 4 5 5 5 5 5 5 5 5 4 4 5 4 3 3
4 3 4 4 4 3 5 4 3 4 4 3 3 4 3 3 3 3 3 4 5 4 3 3 3 3 4 4 4 6 4 4 5 4 5 4 4 5 5 4 4 5 5 4 3 2 3 3 2 2 3 4 3 3 4 4 4 4 4 4 4 4 4 4 4 4 4 3 3 4 5 6 6 5 6 5 6 5 4 5 4 4 4 4 4
4 5 4 4 4 4 3 2 4 4 3 4 4 4 4 3 3 3 3 2 2 2 3 3 3 3 3 4 4 4 5 5 4 4 4 4 5 4 4 4 4 5 4 5 4 3 2 3 3 3 3 3 3 4 4 5 4 5 5 4 4 5 6 6 4 5 4 4 4 4 5 6 5 6 5 6 5 5 6 6 4 4 4 3 4
4 5 4 4 5 5 5 5 5 5 7 7 4 4 4 4 4 4 3 2 2 3 3 3 2 2 3 3 3 4 3 3 4 5 4 4 5 5 4 4 4 4 3 5 6 4 4 3 3 3 4 4 4 3 2 3 4 4 4 4 6 10 10 9 6 6 6 4 4 4 5 5 5 5 5 5 5 4 4 4 4 4 3 3 4
4 4 5 4 4 5 4 5 5 6 5 4 5 6 5 4 4 4 4 3 3 3 3 3 3 2 1 2 3 3 3 4 4 4 5 5 5 4 4 4 4 5 4 4 5 5 4 4 4 4 4 4 4 3 1 2 2 2 3 4 7 9 9 10 9 10 8 5 5 4 4 5 4 5 5 5 4 5 6 5 4 5 4 4 4
5 6 5 4 6 5 5 5 5 5 6 5 6 6 6 6 7 5 5 5 5 5 4 4 3 2 2 3 3 3 2 3 3 4 4 5 5 4 4 4 5 4 4 4 5 5 5 4 4 4 4 4 4 4 2 2 2 2 3 6 6 6 7 8 6 8 9 7 5 5 6 5 4 5 5 5 4 5 5 4 4 4 4 3 2
Wind_Direction
46 45 44 40 43 36 28 26 24 23 27 29 34 18 28 31 28 22 14 17 6 6 8 13 13 12 11 10 20 24 13 6 6 1 359 351 349 338 334 338 330 325 326 319 320 312 295 277 266 258 255 251 251 252 245 236 230 233 231 228 230 221 220 225 232 241 241 212 210 202 200 189 202 203 203 201 200 197 197 197 190 188 190 191 195
48 46 45 45 45 35 30 28 25 23 25 20 31 17 13 24 27 26 23 13 10 12 12 16 15 9 9 11 16 28 19 11 4 1 355 351 344 342 335 333 331 327 324 317 314 315 312 302 290 273 256 255 252 251 247 243 233 234 235 230 230 225 217 223 228 231 241 207 225 217 206 188 204 201 201 198 206 192 194 200 196 191 191 189 186
53 51 49 44 40 39 37 33 28 26 23 15 23 21 16 17 18 24 28 16 11 12 12 17 16 14 16 15 9 24 20 13 2 357 353 347 339 334 329 328 324 321 321 316 314 314 311 308 302 293 275 262 254 253 251 246 239 236 237 230 234 232 223 218 223 228 234 236 207 207 202 193 200 203 207 206 202 192 195 198 194 193 195 188 188
48 49 44 41 37 42 41 32 31 23 23 11 11 8 14 15 14 23 33 24 15 9 11 12 17 19 19 17 13 14 16 5 358 357 351 344 337 327 320 317 313 310 310 310 312 313 309 306 300 302 292 273 261 250 246 245 243 241 239 233 230 236 229 222 220 225 227 237 207 209 201 196 213 209 202 202 193 187 211 222 229 203 189 190 192
48 43 44 40 35 46 48 43 36 30 28 21 19 13 15 16 13 15 28 33 20 13 13 8 18 20 19 17 15 13 11 0 358 353 347 342 333 322 314 310 307 307 304 301 305 307 307 305 306 305 304 297 277 256 248 245 244 244 244 240 236 234 231 224 224 220 227 230 222 216 208 214 207 203 185 184 183 179 185 182 193 191 198 199 190
41 44 36 40 34 38 45 49 44 36 36 32 28 25 23 23 19 18 22 31 20 15 13 11 20 19 19 16 15 12 7 3 0 350 344 338 333 323 315 306 302 300 300 298 298 299 299 300 301 302 299 295 292 280 262 252 248 244 243 245 244 243 237 226 221 222 222 230 221 218 207 208 203 198 183 185 179 177 181 163 176 182 182 190 208
36 38 34 36 33 27 28 32 42 46 41 38 33 30 30 26 26 24 24 29 24 18 15 17 16 18 16 15 13 9 7 4 359 352 345 340 333 328 320 313 301 296 291 290 293 290 287 290 295 296 294 293 294 294 282 264 254 247 242 247 241 244 243 234 226 225 222 223 223 217 215 212 198 201 193 183 189 186 180 174 188 189 193 182 191
42 39 36 38 33 25 22 20 22 30 44 43 38 32 31 31 31 31 28 28 27 21 18 16 16 19 17 14 10 5 6 5 1 353 346 340 336 327 320 318 315 306 295 287 288 282 286 283 283 288 286 284 286 291 299 291 272 253 247 240 239 239 241 238 235 231 225 222 220 216 213 204 207 194 137 163 178 187 191 177 187 188 195 195 195
46 42 39 38 29 27 26 24 25 24 23 28 27 26 28 28 33 35 34 30 25 24 17 16 13 13 10 7 1 358 5 2 4 355 346 343 338 327 320 314 313 311 301 310 313 300 288 291 291 285 298 302 295 288 285 285 289 289 261 239 239 237 240 240 236 235 235 226 226 215 210 209 204 183 172 183 193 195 178 186 201 196 184 185 203
50 43 41 33 31 31 33 33 32 31 29 26 23 16 8 16 26 32 35 30 25 20 19 16 15 11 4 359 359 359 2 2 356 351 350 348 335 327 320 312 307 303 315 323 322 326 324 322 317 317 314 306 295 284 278 279 279 271 272 268 243 235 234 235 233 235 237 229 228 215 214 214 201 197 191 198 192 159 178 189 191 164 164 199 206
54 50 44 35 37 36 37 35 34 34 27 28 24 20 13 9 10 13 21 26 22 19 16 16 16 8 6 360 359 359 359 360 353 350 349 350 348 332 318 322 325 324 326 326 327 326 325 324 321 321 322 320 321 318 312 303 289 278 268 259 256 251 240 234 234 233 229 226 228 221 218 215 210 202 201 185 185 187 186 182 186 175 181 178 200
58 49 43 41 40 42 41 39 39 32 30 25 20 17 16 15 15 10 7 12 16 17 20 15 12 7 4 3 2 359 357 357 354 352 350 349 350 342 324 334 329 328 329 329 326 324 323 323 324 323 321 323 321 317 312 307 304 297 281 263 254 249 245 242 242 242 230 226 223 217 211 213 211 203 203 175 189 189 192 188 189 180 182 198 201
56 52 44 47 45 45 43 44 40 35 28 22 19 20 18 17 16 13 12 5 4 13 10 9 9 4 5 4 1 358 355 356 354 353 351 350 348 344 330 336 334 332 331 328 326 327 324 318 320 317 319 326 324 316 310 309 306 303 304 292 261 243 243 243 241 242 241 229 228 222 211 209 211 211 201 191 177 188 186 193 197 192 193 200 205
59 58 55 51 50 46 46 46 43 36 27 25 23 23 22 20 16 13 12 9 10 6 2 5 2 5 5 2 357 357 356 356 354 354 352 350 347 341 335 335 335 333 331 330 330 328 324 319 318 323 320 322 318 318 313 306 301 298 294 289 283 254 236 235 238 239 240 240 232 233 222 209 212 206 204 180 178 194 187 199 191 195 194 205 205
67 68 68 59 54 49 48 45 46 35 29 26 27 29 25 22 20 12 13 8 6 2 360 360 1 1 358 359 360 359 356 354 356 355 354 352 347 342 338 334 334 335 332 332 332 329 327 323 318 314 320 319 316 321 313 304 296 287 281 276 269 271 246 223 215 218 228 229 243 240 234 216 217 213 202 194 194 196 193 194 190 195 191 153 62
81 77 72 62 57 50 55 53 47 38 34 31 34 28 25 21 15 0 6 2 1 359 3 4 4 359 357 359 1 360 350 351 355 356 355 354 348 345 341 337 336 335 328 335 335 336 333 329 327 325 323 317 319 322 317 302 285 274 267 263 262 264 260 232 218 213 218 223 228 234 238 229 215 215 204 201 203 198 185 105 86 146 161 164 172
90 83 81 74 66 55 56 60 54 46 36 41 33 25 20 10 7 359 7 4 3 5 359 356 352 357 359 1 1 358 350 349 354 355 356 356 353 348 342 338 336 335 333 328 332 333 335 335 335 330 326 318 325 330 327 320 292 261 251 254 257 256 260 245 225 221 221 223 227 231 239 241 226 217 211 201 197 188 169 174 184 167 171 188 178
103 95 90 85 70 60 54 57 58 46 45 41 28 20 12 8 8 353 13 -0 7 358 350 355 355 358 360 359 357 359 347 347 354 355 357 358 357 351 345 342 336 335 328 330 333 335 335 337 339 337 332 328 331 336 334 333 315 269 255 255 263 259 257 249 238 242 236 236 239 239 241 241 235 223 213 203 199 185 179 197 181 165 187 188 182
107 106 99 89 78 70 62 58 56 52 48 30 27 23 6 6 342 357 9 10 5 353 356 359 353 356 355 353 354 1 347 348 353 356 356 359 2 357 351 344 340 335 332 330 335 337 337 338 336 338 340 335 335 343 342 342 330 295 271 259 259 258 256 228 223 234 239 241 246 241 249 246 241 228 220 207 196 193 195 195 159 177 187 191 171
124 108 104 94 90 68 60 72 59 60 47 33 25 21 359 12 8 8 8 13 5 1 358 -0 358 351 343 347 350 353 349 348 354 354 356 356 2 2 356 354 349 337 334 337 336 336 339 338 337 340 341 339 341 350 349 347 347 338 302 266 265 271 260 222 227 223 230 224 235 231 236 233 223 216 211 202 203 198 197 191 183 183 185 180 177
113 113 111 104 98 93 76 86 77 50 48 49 28 28 19 19 11 18 11 3 8 5 1 351 351 346 342 343 345 351 351 349 351 354 355 356 358 6 355 355 341 334 335 337 338 334 336 338 335 339 340 340 346 352 355 351 351 354 1 358 342 354 34 32 3 333 313 307 300 0 24 33 338 253 225 204 197 203 202 197 187 187 181 180 179
120 114 110 115 112 92 91 66 65 64 44 43 43 24 3 17 23 15 5 6 5 2 356 355 352 347 345 346 350 347 350 354 358 354 356 356 356 1 4 354 350 340 341 340 339 338 335 334 335 337 339 345 348 353 2 357 357 5 358 7 10 15 32 50 49 48 43 30 32 29 17 25 43 35 21 11 344 246 209 199 192 193 195 185 178
119 116 117 107 100 76 46 47 33 33 28 31 49 24 356 9 7 12 9 5 8 4 1 356 355 352 348 350 348 345 345 350 358 356 355 356 356 357 358 357 354 357 346 341 342 335 333 334 331 335 342 349 352 355 7 3 5 2 3 10 18 17 19 24 45 66 63 49 42 34 26 10 20 44 40 25 11 20 31 25 138 148 115 93 97
123 117 112 108 94 78 55 32 29 21 19 9 36 30 9 354 2 16 5 16 8 3 358 353 355 357 354 348 351 346 342 347 351 357 356 356 355 357 355 355 358 357 353 348 343 340 341 338 334 335 348 355 356 357 7 10 9 7 11 10 17 24 24 22 24 37 51 53 52 47 34 22 350 23 58 57 48 29 34 41 52 81 97 90 92
124 119 126 127 114 120 65 35 15 9 4 37 33 8 359 9 6 357 12 10 9 4 348 351 356 348 348 353 346 345 343 346 353 353 357 356 356 357 356 355 356 356 357 350 349 343 340 342 343 345 353 359 357 3 9 9 9 12 14 14 20 26 21 23 21 33 47 41 40 36 27 24 25 359 4 66 62 52 62 51 54 65 77 78 73
127 140 146 144 149 149 102 29 5 354 347 0 43 56 14 358 2 348 8 3 3 0 348 348 352 351 349 347 347 339 338 346 354 351 355 358 357 356 356 357 358 356 355 351 346 346 348 349 351 353 360 3 8 11 11 6 11 14 17 19 24 24 23 19 19 32 38 35 38 35 24 16 13 15 12 41 52 37 26 60 80 56 60 86 83
132 145 167 189 207 166 134 144 334 342 349 340 354 9 0 13 1 349 352 355 349 352 352 353 351 351 350 343 341 339 345 347 352 351 354 354 354 353 356 357 357 356 358 352 352 352 351 354 354 358 3 8 14 13 14 11 14 13 16 17 20 22 23 24 21 28 26 27 34 32 29 20 26 32 30 32 36 24 24 54 64 58 75 71 78
145 168 187 200 210 205 191 237 241 320 313 353 346 343 340 354 351 321 318 322 339 341 347 344 348 348 336 334 336 343 348 350 354 355 350 353 351 353 356 356 358 357 356 353 350 355 354 352 2 9 8 13 12 12 12 14 15 13 13 14 17 17 21 24 29 32 26 23 32 30 31 30 37 34 35 39 33 25 15 38 63 71 62 86 74
111 121 169 194 230 247 256 268 276 294 324 328 304 249 260 292 298 307 268 197 191 270 317 314 333 335 320 317 338 344 345 351 345 331 340 349 356 355 358 359 360 0 359 355 357 360 5 9 9 9 11 10 11 11 10 11 13 13 15 14 14 15 17 21 26 24 16 24 29 31 33 36 39 35 40 46 37 31 17 38 37 70 73 74 76
94 98 122 145 227 250 261 270 279 300 333 341 344 329 277 248 228 231 293 280 228 221 194 259 291 315 323 307 309 346 325 312 326 341 346 350 354 356 356 1 4 6 1 358 9 13 12 11 10 9 8 10 9 10 9 11 12 13 13 13 15 16 17 17 16 12 17 29 31 35 33 36 41 36 42 44 42 40 33 37 41 41 70 80 80
116 130 87 81 90 232 255 269 276 309 326 336 345 343 333 341 291 216 239 276 291 288 253 252 268 269 217 294 322 336 345 348 351 350 351 353 354 355 357 1 5 5 3 2 18 20 12 15 12 10 8 8 10 7 7 11 14 13 13 13 19 16 15 18 13 14 18 20 23 26 29 33 34 30 37 37 43 42 45 41 43 47 54 63 80
144 160 148 170 212 225 207 304 330 321 341 8 4 344 22 354 339 335 325 319 340 6 11 347 326 353 281 259 300 327 342 351 358 356 354 357 355 355 355 358 4 8 2 10 28 20 14 15 12 11 7 10 8 6 9 11 10 14 12 17 16 14 16 15 5 22 23 23 23 24 24 29 36 34 34 34 39 41 42 41 42 46 50 54 61
139 168 161 158 176 187 69 63 0 346 127 62 323 332 36 39 29 336 329 339 3 55 30 20 9 359 359 333 316 337 349 358 2 0 356 355 356 355 353 351 359 9 9 24 25 19 14 15 15 10 11 9 5 7 9 10 9 10 15 18 17 11 13 9 12 24 26 29 32 27 22 23 31 40 38 36 37 42 40 48 46 50 51 57 52
156 163 170 162 142 161 164 148 153 217 232 210 225 234 235 204 227 248 353 352 342 345 343 1 6 -0 343 351 356 357 2 6 7 3 1 358 354 352 356 344 -0 14 26 22 18 17 12 13 11 11 7 9 9 8 11 10 10 10 11 15 15 15 13 12 23 21 24 25 30 25 25 25 26 40 40 35 37 43 47 45 50 57 56 58 65
154 165 137 140 152 162 187 161 174 182 218 220 222 256 297 273 207 180 57 332 324 314 312 321 339 5 336 327 344 349 359 5 7 5 4 2 358 347 351 6 10 2 8 13 14 12 9 9 5 4 3 6 5 10 12 11 12 14 13 9 10 12 16 20 20 18 22 25 26 25 28 30 26 34 43 44 37 39 38 45 46 55 64 60 62
157 151 178 183 165 181 185 173 188 179 190 211 219 220 187 233 293 325 295 238 258 298 315 304 300 297 312 319 349 347 353 359 5 5 5 6 3 6 13 5 4 2 1 0 3 359 1 2 3 359 1 3 2 4 5 11 11 13 12 13 11 11 14 17 17 18 19 27 28 21 22 25 22 24 36 43 43 42 42 42 45 45 56 61 61
153 138 159 193 193 202 218 160 187 178 186 236 232 277 202 147 108 71 34 261 302 286 274 300 338 341 335 318 348 342 342 355 355 10 8 6 13 21 12 2 1 354 359 354 357 355 0 354 356 358 2 2 3 1 2 7 5 10 12 17 16 19 14 14 17 19 22 24 23 24 26 26 25 25 32 39 34 38 39 47 52 49 48 53 61
160 148 189 249 234 170 200 198 135 81 74 265 264 271 298 298 132 119 55 347 316 311 319 323 342 327 313 297 331 6 320 336 4 11 2 6 7 5 358 358 355 3 351 348 354 357 358 353 356 0 357 359 2 2 6 8 4 8 8 11 16 17 17 19 16 18 20 27 25 20 25 27 24 26 32 41 37 36 35 35 44 48 44 41 49
157 153 191 239 242 224 207 166 104 107 62 278 250 257 287 348 56 76 346 10 357 337 313 310 314 314 294 293 312 331 11 12 4 353 343 344 350 360 355 351 344 347 349 345 353 1 356 356 351 354 356 358 356 359 5 7 10 12 8 15 15 15 16 16 17 15 19 19 18 17 21 25 31 34 38 46 41 38 40 37 37 44 53 50 49
233 303 256 267 239 246 128 101 115 96 121 262 288 280 15 51 268 228 221 344 334 316 306 307 306 298 293 316 304 4 19 346 326 324 338 344 344 342 358 350 341 336 341 339 350 357 354 348 350 353 352 350 356 356 -0 1 10 11 16 19 18 17 14 14 15 19 17 10 17 14 15 14 21 40 46 43 44 48 51 47 41 44 59 74 68
189 266 178 216 165 145 120 98 323 313 174 253 238 235 211 211 199 230 217 222 269 294 300 289 281 281 290 292 278 225 257 306 315 321 319 315 325 334 341 333 334 332 338 342 339 344 347 347 349 350 348 348 350 0 356 4 2 7 15 13 19 19 13 12 11 14 13 17 17 17 16 17 19 37 49 43 52 61 53 57 58 55 59 64 75
165 172 110 104 113 138 131 253 280 281 108 215 214 227 235 201 182 189 207 226 259 275 292 290 284 283 303 319 320 275 260 274 267 302 313 315 325 325 319 321 319 319 329 333 333 334 336 346 347 354 347 344 345 350 358 4 4 3 7 14 14 15 17 8 4 8 13 12 13 16 14 19 23 27 29 36 52 55 62 53 54 56 55 53 59
166 149 156 144 144 165 174 214 194 144 184 218 265 261 254 174 182 192 203 228 245 265 267 280 285 308 314 321 326 311 282 282 277 279 285 294 301 305 312 309 308 308 310 311 328 331 332 344 349 347 335 329 335 342 350 353 354 10 12 13 17 16 16 7 7 3 2 10 12 13 23 22 27 30 31 30 30 43 41 49 54 57 52 56 61
130 122 115 103 116 161 210 169 175 185 197 205 236 237 156 187 191 174 211 238 268 256 254 259 265 294 305 315 339 320 282 285 285 272 274 287 293 296 299 304 312 324 335 335 332 336 351 9 359 343 340 351 350 353 359 3 10 31 18 15 18 19 13 9 4 357 351 351 11 17 20 28 34 37 40 33 44 55 45 44 43 46 55 56 65
122 134 134 134 142 212 204 196 173 157 159 135 190 293 339 151 187 206 197 237 259 258 250 255 274 287 297 297 297 291 280 274 277 285 278 267 277 286 293 302 312 319 328 328 325 333 352 9 18 3 350 346 352 353 350 351 7 28 35 42 32 18 359 342 333 318 324 10 19 18 24 37 37 38 39 34 41 59 57 53 59 59 48 29 61
135 140 146 144 151 204 178 209 187 160 163 184 180 190 232 261 217 201 211 228 239 250 273 274 264 265 264 278 284 288 281 285 281 273 277 280 271 273 279 289 301 306 307 299 305 317 336 1 11 350 335 332 333 334 343 355 0 5 9 20 11 330 303 301 312 342 19 29 20 19 22 41 40 36 35 39 39 53 67 63 66 70 81 74 62
145 149 151 156 168 203 208 192 172 190 180 190 188 174 197 216 223 222 221 222 232 240 239 247 256 271 277 279 281 280 281 291 286 286 274 271 273 270 281 294 307 314 319 314 306 319 332 332 338 324 309 309 314 326 340 352 359 353 354 357 359 360 350 342 347 357 7 9 31 58 48 51 38 31 25 35 39 31 41 41 47 74 77 83 80
164 179 176 164 167 171 237 202 206 221 193 197 206 207 206 209 218 222 218 247 285 277 252 253 242 247 259 273 264 258 264 270 278 272 274 273 267 270 278 287 297 301 315 317 308 308 306 300 308 315 306 304 315 321 325 340 353 354 353 352 354 355 356 359 5 7 9 19 35 53 64 61 50 45 37 44 45 39 45 15 7 30 52 64 82
200 175 193 175 180 185 187 210 213 212 208 200 207 211 218 223 225 226 230 240 240 252 227 211 229 239 234 252 277 280 272 268 282 289 280 267 269 269 270 281 289 296 313 314 304 299 290 290 293 292 289 290 293 297 320 336 345 354 352 353 349 350 360 7 10 2 358 24 39 42 53 55 52 46 43 41 32 38 51 38 35 18 22 52 63
230 220 194 199 201 213 195 193 207 223 216 187 195 207 213 218 229 224 214 218 229 242 228 218 214 217 248 281 294 299 307 302 287 284 279 278 272 271 280 284 288 293 296 289 291 292 288 280 283 284 290 290 288 290 293 300 311 327 339 342 352 358 359 3 10 7 9 10 27 58 64 65 54 47 43 50 43 40 37 24 20 27 28 36 46
215 231 212 198 208 205 177 183 213 230 225 203 205 213 211 214 224 224 198 196 208 217 215 218 218 228 239 236 243 254 260 261 261 260 270 275 274 281 278 278 280 288 296 292 286 283 281 278 274 272 272 276 282 281 275 266 275 294 316 330 347 360 4 13 9 357 5 14 10 19 47 48 53 41 29 26 35 42 27 22 23 28 28 13 16